sat.trackr.live / text

‹ back to catalog

QIANFAN-138

NORAD 69084 · 2026-104M

PAYLOAD ACTIVE UNKNOWN

§ Identity

Operator
Country
PRC
Launch date
2026-05-12
Launch site
TAISC
Launch vehicle
Mass (kg)
RCS (m²)

External: N2YO · Heavens-Above · Gunter

§ Orbital elements

Epoch: 2026-05-25T04:27:06.179616Z

Period
101.35 min
Inclination
88.9870°
Eccentricity
0.0003030
Mean motion
14.20798096 rev/d
Perigee alt
820.5 km
Apogee alt
824.8 km
Semi-major
7,200.8 km
B*
3.1093e-5
RAAN
344.2472°
Arg perigee
175.0482°
Mean anomaly
185.0739°
Rev number
182

§ Raw data

QIANFAN-1381 69084U 26104M   26145.18548819  .00000082  00000+0  31093-4 0  99912 69084  88.9870 344.2472 0003030 175.0482 185.0739 14.20798096  1828

JSON: /api/v1/satellites/69084 · /tle

For live sub-satellite position, see the globe view (requires WebGL).

§ Visibility from observer

Set your observer location to see the next 7 days of passes ≥ 10°. The values pass through the URL so the page stays shareable.

No JS? Fill the form by hand. The geolocation button needs JavaScript.